Martinsburg, WV

9:01 AM EST on February 10, 2016 (GMT -0500)
Eastern W Va Regional-Shepherd

Weather History for KMRB - July, 2012

Change the Weather History Date:

Wednesday, July 25, 2012

  Actual Average Record
Temperature  
Mean Temperature 75 °F 75 °F  
Max Temperature 84 °F 86 °F 101 °F (1933)
Min Temperature 66 °F 64 °F 51 °F (1957)
Degree Days  
Heating Degree Days 0 0  
Month to date heating degree days 0 0  
Since 1 June heating degree days 14 24  
Since 1 July heating degree days 0 0  
Cooling Degree Days 10 10  
Month to date cooling degree days 327 246  
Year to date cooling degree days 663 486  
Since 1 June cooling degree days 509 429  
Growing Degree Days 24 (Base 50)    
Moisture  
Dew Point 57 °F    
Average Humidity 62    
Maximum Humidity 87    
Minimum Humidity 37    
Precipitation  
Precipitation 0.00 in 0.12 in 0.65 in (1992)
Month to date precipitation 2.81 2.93  
Year to date precipitation 18.96 22.42  
Sea Level Pressure  
Sea Level Pressure 29.91 in    
Wind  
Wind Speed 3 mph (NNW)    
Max Wind Speed 8 mph    
Max Gust Speed 12 mph    
Visibility 10 miles    
Events      
T = Trace of Precipitation, MM = Missing Value Source: NWS Daily Summary

Daily Weather History Graph

Daily Weather History Graph

Search for Another Location

Airport or City:

Trip Planner

Search our weather history database for the weather conditions in past years. The results will help you decide how hot, cold, wet, or windy it might be!

Date:

Astronomy

Jul. 25, 2012 Rise Set
Actual Time 6:05 AM EDT 8:30 PM EDT
Civil Twilight 5:35 AM EDT 9:00 PM EDT
Nautical Twilight 4:57 AM EDT 9:38 PM EDT
Astronomical Twilight 4:15 AM EDT 10:20 PM EDT
Moon 1:06 PM EDT (7/25) 11:57 PM EDT (7/25)
Length of Visible Light 15h 25m
Length of Day
14h 24m
Waxing Crescent, 42% of the Moon is Illuminated
Jul 25
Waxing Crescent
Jul 26
First Quarter
Aug 1
Full
Aug 9
Last Quarter
Aug 17
New

Hourly Weather History & Observations

Time (EDT) Temp. Heat Index Dew Point Humidity Pressure Visibility Wind Dir Wind Speed Gust Speed Precip Events Conditions
12:53 AM 77.0 °F - 60.1 °F 56% 29.85 in 10.0 mi NNW 12.7 mph - N/A   Clear
1:53 AM 75.0 °F - 60.1 °F 60% 29.86 in 10.0 mi NW 10.4 mph - N/A   Clear
2:53 AM 73.0 °F - 60.1 °F 64% 29.87 in 10.0 mi NW 8.1 mph - N/A   Clear
3:53 AM 71.1 °F - 60.1 °F 68% 29.89 in 10.0 mi NNW 5.8 mph - N/A   Clear
4:53 AM 69.1 °F - 57.9 °F 68% 29.92 in 10.0 mi North 4.6 mph - N/A   Clear
5:53 AM 66.9 °F - 57.9 °F 73% 29.95 in 10.0 mi NNW 5.8 mph - N/A   Clear
6:53 AM 66.9 °F - 57.9 °F 73% 29.96 in 10.0 mi NNW 4.6 mph - N/A   Clear
7:53 AM 71.1 °F - 57.9 °F 63% 29.98 in 10.0 mi Calm Calm - N/A   Clear
8:53 AM 73.9 °F - 55.0 °F 52% 29.99 in 10.0 mi NNE 4.6 mph - N/A   Clear
9:53 AM 75.9 °F - 52.0 °F 43% 29.99 in 10.0 mi ENE 3.5 mph - N/A   Clear
10:53 AM 77.0 °F - 52.0 °F 42% 29.98 in 10.0 mi Calm Calm - N/A   Clear
11:53 AM 78.1 °F - 52.0 °F 40% 29.99 in 10.0 mi Calm Calm - N/A   Clear
12:53 PM - - - N/A% - 10.0 mi Calm Calm - N/A   Clear
2:53 PM 82.0 °F 81.2 °F 53.1 °F 37% 29.93 in 10.0 mi Variable 3.5 mph - N/A   Clear
3:53 PM 82.0 °F 81.3 °F 54.0 °F 38% 29.90 in 10.0 mi WSW 5.8 mph - N/A   Clear
4:53 PM 82.9 °F 81.9 °F 54.0 °F 37% 29.89 in 10.0 mi West 5.8 mph - N/A   Clear
5:53 PM 82.9 °F 82.1 °F 55.9 °F 39% 29.88 in 10.0 mi Calm Calm - N/A   Clear
6:53 PM 81.0 °F 81.0 °F 57.0 °F 44% 29.87 in 10.0 mi SE 5.8 mph - N/A   Clear
7:53 PM 78.1 °F - 59.0 °F 52% 29.88 in 10.0 mi Calm Calm - N/A   Clear
8:53 PM 73.9 °F - 59.0 °F 59% 29.87 in 10.0 mi SSE 4.6 mph - N/A   Clear
9:53 PM 70.0 °F - 61.0 °F 73% 29.88 in 10.0 mi Calm Calm - N/A   Clear
10:53 PM 68.0 °F - 62.1 °F 81% 29.86 in 10.0 mi SSW 3.5 mph - N/A   Clear
11:53 PM 66.9 °F - 62.1 °F 84% 29.86 in 10.0 mi Calm Calm - N/A   Clear